Wind_Speed
34 29 28 30 31 31 30 28 27 24 24 21 17 21 18 20 12 16 18 21 24 22 23 24 28 25 26 29 21 22 22 24 24 23 23 22 22 23 23 24 24 25 24 23 23 23 25 25 25
32 28 27 28 28 34 32 31 30 29 28 23 24 21 24 27 23 28 30 30 27 27 28 30 30 28 28 25 27 30 36 28 30 34 28 25 27 30 32 29 31 30 31 30 28 28 29 30 29
31 28 26 26 27 29 36 34 35 34 32 31 27 27 25 30 28 30 31 27 30 30 30 29 34 33 27 29 22 27 28 31 31 31 31 31 34 37 38 38 38 38 38 37 36 36 35 35 34
31 29 26 25 26 26 31 38 37 36 34 36 38 36 30 28 33 31 29 27 27 29 28 30 35 32 27 27 30 27 25 30 36 39 36 34 36 36 40 39 35 36 38 38 38 38 38 38 40
31 29 26 26 27 25 27 35 43 41 43 43 42 42 41 40 35 36 36 34 35 34 34 34 29 29 28 29 32 35 36 38 41 41 40 42 46 44 42 39 43 42 42 43 42 42 41 41 41
33 30 26 26 26 26 24 30 44 48 49 49 49 49 48 45 44 40 42 40 43 42 41 38 38 35 32 32 36 39 41 45 48 47 48 48 48 48 44 45 40 42 44 42 45 46 44 45 46
35 33 28 26 26 28 30 29 34 46 55 56 55 54 52 50 51 50 49 48 48 44 48 44 45 46 43 37 40 42 44 46 45 47 48 51 50 51 48 44 46 41 41 43 45 47 48 48 51
36 34 31 25 28 32 34 34 36 40 47 56 58 61 58 56 54 55 57 57 56 55 54 54 55 54 54 56 53 53 52 53 53 52 54 56 56 57 53 49 51 52 49 46 46 48 53 51 49
38 36 34 30 32 34 36 39 40 42 43 46 53 58 60 64 65 64 64 66 65 65 65 65 64 64 67 70 72 69 68 66 65 63 61 62 61 62 62 58 57 59 58 59 59 57 54 56 55
40 38 36 34 36 38 39 40 42 43 43 48 47 46 54 59 62 66 66 68 70 71 70 69 69 69 69 71 74 75 74 71 70 76 72 71 71 72 72 69 66 66 67 66 69 68 69 69 62
40 37 35 35 39 40 41 42 42 42 43 45 43 45 51 53 56 58 59 60 63 65 69 71 71 67 71 70 71 74 75 77 79 77 75 73 72 71 75 78 78 78 78 78 78 79 80 72 72
38 36 34 32 33 34 36 38 40 42 44 43 41 44 46 50 52 54 57 59 59 61 62 63 65 65 67 68 69 70 69 69 71 71 74 75 73 71 73 74 76 74 74 77 79 78 79 79 78
35 36 35 34 35 35 37 39 43 45 46 45 45 46 48 50 53 55 57 59 61 62 63 64 64 66 68 70 71 72 74 74 75 75 74 75 73 74 76 76 77 77 78 78 75 76 76 77 79
38 38 37 37 37 39 41 43 46 47 48 47 49 48 51 52 53 55 57 58 60 62 62 63 64 66 67 68 70 71 71 71 71 71 71 73 71 73 74 75 78 80 83 83 85 83 85 83 82
38 37 36 37 38 40 42 44 46 48 49 48 50 49 50 51 53 57 58 58 58 60 61 62 63 64 65 68 69 71 72 73 74 74 74 75 74 75 76 77 78 79 80 82 84 84 85 85 87
32 33 33 33 34 37 38 40 43 45 46 47 49 49 51 53 55 58 60 61 60 60 61 62 64 65 66 68 69 71 73 74 75 75 75 76 76 77 77 78 79 80 82 84 86 87 88 87 87
32 33 34 34 36 37 38 40 41 44 47 48 50 50 52 55 58 60 62 62 62 62 64 66 67 68 69 71 72 73 74 76 78 79 79 79 80 81 81 81 82 82 82 83 85 87 90 91 90
37 36 36 36 37 38 39 40 44 46 47 48 51 54 56 58 61 64 65 65 65 67 68 69 71 72 73 74 75 76 78 79 80 82 83 83 84 85 85 85 84 83 83 82 83 84 85 87 88
38 38 39 40 41 42 43 44 46 48 50 51 55 59 60 63 65 68 69 69 70 71 73 74 75 76 76 77 79 81 81 81 83 84 84 84 84 86 86 86 86 86 85 84 84 84 84 84 80
42 41 40 41 41 42 45 47 49 52 54 57 59 61 64 68 71 73 73 72 75 75 77 78 79 81 82 82 83 83 83 83 83 84 85 84 84 84 84 83 82 80 78 77 77 75 73 73 70
43 44 44 44 45 45 47 50 53 55 57 60 61 63 66 70 74 76 76 76 77 79 80 79 79 79 80 81 81 79 79 79 78 76 74 72 70 71 70 68 66 66 65 64 63 64 63 65 65
46 46 45 46 47 49 50 51 54 55 58 60 61 62 66 68 71 72 72 71 70 70 70 70 72 74 76 76 77 76 73 69 67 66 64 62 59 58 59 61 61 59 59 59 59 60 61 62 64
40 44 46 47 47 47 49 49 52 53 55 56 54 56 58 61 61 62 60 58 59 59 59 63 66 68 70 72 74 74 71 67 63 58 54 50 47 48 53 56 55 56 55 55 55 56 57 57 59
33 37 40 41 40 38 39 40 44 44 45 46 45 47 50 54 56 56 55 55 56 58 62 66 68 68 69 70 71 71 69 66 59 55 51 47 45 46 52 52 50 49 49 49 50 52 53 55 56
30 31 28 25 28 31 31 32 37 40 44 47 49 51 52 55 58 58 59 60 62 66 68 68 69 71 70 69 67 66 63 61 58 55 52 49 49 49 50 47 44 43 42 42 43 45 45 47 50
29 24 24 28 29 28 32 35 36 34 36 40 45 49 52 55 57 58 59 62 66 69 68 70 73 71 67 64 61 58 55 53 53 53 55 53 52 50 49 42 39 39 38 39 40 43 47 50 54
32 29 30 30 32 33 30 30 32 32 35 39 42 45 48 49 54 58 61 64 66 65 70 73 70 64 58 53 49 46 46 47 45 46 49 51 48 47 43 39 37 37 36 37 39 43 48 46 38
35 34 34 34 34 34 32 35 34 35 38 42 43 45 46 50 56 61 64 64 65 68 72 66 59 54 49 44 41 38 36 37 38 38 39 40 40 39 37 34 33 31 32 37 37 32 28 29 33
38 37 36 36 35 33 32 36 37 39 42 44 45 47 50 54 60 63 64 64 67 68 63 56 54 50 45 41 38 37 35 33 33 34 34 34 33 30 29 28 28 32 31 22 22 25 29 33 38
41 38 38 39 39 39 38 40 41 43 46 46 46 51 54 58 61 63 63 65 67 65 56 53 50 48 45 42 37 36 35 32 31 30 27 25 24 24 22 25 28 18 14 18 23 27 32 38 44
Wind_Direction
245 241 233 230 218 218 226 226 223 222 228 237 222 214 219 243 243 246 254 257 263 265 272 276 279 282 285 297 283 278 272 274 275 276 277 277 281 281 278 277 277 276 280 272 266 261 264 262 265
246 248 242 235 230 220 222 230 224 219 228 227 209 205 207 228 222 237 246 254 258 251 258 270 273 278 278 270 286 299 299 296 295 290 281 282 284 287 288 286 287 283 278 273 271 269 264 261 264
249 255 252 243 238 228 220 222 230 227 226 227 215 201 213 233 234 238 244 256 251 259 268 266 274 279 272 273 282 298 281 296 289 293 288 289 293 293 293 291 293 293 291 288 279 274 270 272 264
252 253 247 243 235 235 228 222 228 230 226 226 225 216 208 231 246 247 245 251 251 256 265 264 265 265 266 274 263 261 265 272 279 284 290 294 299 303 290 282 279 282 283 278 274 272 273 273 272
253 252 245 244 247 245 236 228 224 225 228 232 234 231 228 220 229 244 247 251 255 257 261 259 262 257 259 260 262 257 261 277 285 286 287 287 291 292 290 291 286 283 284 280 275 270 269 266 267
257 254 248 248 248 253 250 238 229 230 228 232 238 241 237 228 226 236 243 245 253 258 263 261 256 265 261 266 266 260 261 272 277 280 281 286 287 289 286 289 284 282 278 280 278 277 275 272 276
258 256 250 248 253 254 252 250 248 234 236 233 234 242 243 242 236 242 250 254 257 255 259 261 263 264 265 267 273 273 274 277 279 281 283 282 284 283 279 279 279 281 280 279 271 266 269 274 274
256 256 257 248 254 259 258 253 249 248 244 241 242 239 244 249 247 251 251 257 260 262 262 266 267 266 267 269 273 274 274 276 279 280 281 280 279 278 276 274 274 277 277 283 283 277 267 268 268
257 258 260 258 254 257 258 258 256 256 255 252 249 247 247 248 253 256 257 261 265 267 268 269 269 271 273 274 277 277 274 272 277 280 283 281 274 273 277 273 270 268 270 272 276 279 279 274 267
259 259 261 262 260 257 257 257 258 258 255 255 258 258 257 256 257 259 261 262 265 268 269 270 271 269 269 271 273 275 278 278 279 280 281 278 277 274 273 272 270 269 272 271 275 277 277 277 274
260 262 261 262 262 259 257 258 260 261 262 261 260 257 258 261 262 265 265 265 266 268 271 270 272 273 274 275 275 277 276 276 279 282 282 281 279 276 273 276 274 275 274 273 271 271 273 271 269
263 265 264 262 262 260 260 261 260 261 261 262 262 261 260 261 264 265 267 268 268 269 270 272 272 273 274 276 276 274 274 275 275 277 277 278 278 277 276 275 274 277 277 274 274 276 276 275 271
260 260 261 262 261 262 263 263 262 262 262 263 264 266 266 266 266 267 268 270 270 270 271 271 271 272 272 273 274 276 277 277 276 277 276 276 276 277 278 278 278 278 278 277 276 275 275 275 274
258 257 258 259 263 263 265 265 266 267 268 269 268 269 269 269 270 271 270 270 272 274 275 276 275 276 277 277 277 277 276 276 277 277 277 277 277 276 275 275 276 274 276 277 278 277 277 277 275
263 263 262 262 260 262 263 265 267 269 271 271 271 272 271 273 273 272 272 273 274 276 277 278 278 277 277 278 279 280 281 280 280 279 279 278 277 277 278 278 277 276 276 276 276 275 274 275 276
265 266 265 266 266 265 264 265 267 270 270 272 272 273 275 275 275 275 275 274 275 276 276 276 277 278 278 278 279 279 279 278 278 279 279 279 279 278 278 277 276 275 275 276 276 276 276 275 275
266 266 266 264 264 266 268 270 272 271 272 274 276 278 278 279 279 279 278 280 280 278 277 277 277 278 278 278 279 278 278 278 278 278 278 278 278 277 277 277 276 276 276 276 275 274 274 274 273
264 264 266 268 268 269 270 272 273 275 277 279 280 280 279 280 280 280 280 280 280 280 280 280 280 281 280 280 280 280 280 279 280 281 281 281 280 281 280 279 278 277 276 275 273 273 273 273 273
267 267 267 270 270 272 274 275 277 279 279 281 281 281 282 285 285 283 284 285 285 285 284 284 285 285 283 282 283 282 281 282 281 282 283 282 281 281 281 281 281 280 280 279 278 278 278 278 276
268 270 271 271 273 276 277 279 281 281 282 282 285 288 289 288 287 286 286 287 287 289 288 287 287 287 285 284 283 283 283 283 283 283 284 284 284 283 283 283 283 282 281 280 279 279 278 278 276
267 268 269 270 272 273 275 277 278 281 283 284 285 287 287 286 286 288 290 291 291 291 291 291 290 289 287 286 287 286 285 286 285 284 286 287 287 286 286 286 285 285 284 282 280 279 279 279 279
264 266 268 269 271 273 276 278 279 280 282 283 285 286 286 287 289 291 293 296 298 298 297 294 291 290 291 292 290 289 288 288 288 287 288 289 289 289 291 289 284 283 284 282 282 282 282 283 283
270 267 268 269 272 276 278 280 281 281 282 284 288 288 289 291 294 295 300 302 302 300 296 294 294 294 293 291 290 290 290 288 288 286 286 288 288 290 295 292 287 284 283 281 282 284 285 284 285
278 273 272 272 275 276 274 276 278 283 289 291 291 289 290 293 296 298 301 299 298 295 293 294 296 297 296 293 290 289 288 286 282 281 284 284 287 290 299 297 292 288 285 284 284 283 284 285 286
285 286 286 279 268 269 278 279 278 285 290 292 293 293 293 292 294 296 296 297 297 297 299 301 303 300 296 292 290 287 285 284 280 275 280 284 287 292 298 296 290 287 285 284 284 286 288 289 290
283 289 276 275 276 276 277 277 281 290 297 299 297 297 295 294 295 297 300 301 301 303 305 304 302 300 298 294 291 287 284 282 278 275 275 279 286 291 297 294 290 290 290 290 292 294 293 294 294
277 273 274 273 277 276 269 276 285 296 303 308 311 310 306 303 302 303 303 304 306 307 308 308 306 304 302 299 294 289 283 279 276 274 274 276 283 291 293 293 294 294 295 296 296 297 295 297 297
274 271 270 273 271 270 276 282 289 298 303 307 314 316 308 304 307 308 308 308 311 311 313 309 307 306 304 304 301 295 287 279 274 273 275 277 281 285 290 294 299 300 298 299 298 297 298 298 300
271 273 272 270 266 268 277 286 293 300 307 312 316 317 313 310 311 312 311 312 312 314 311 309 309 308 308 306 300 294 287 280 275 273 272 272 277 284 294 299 297 301 299 291 291 299 305 307 306
270 273 270 268 265 269 275 279 289 299 306 311 314 314 315 314 312 311 310 311 315 315 313 311 311 313 312 305 296 287 279 272 267 265 264 271 281 294 296 296 302 291 282 292 300 304 308 308 309
Height
10942 10945 10947 10949 10954 10957 10956 10961 10962 10962 10962 10963 10963 10963 10963 10962 10962 10963 10964 10964 10966 10965 10965 10964 10964 10966 10966 10967 10966 10966 10966 10966 10966 10967 10966 10966 10967 10968 10967 10966 10966 10966 10965 10963 10961 10959 10959 10958 10958
10938 10942 10944 10946 10949 10952 10954 10956 10958 10958 10959 10958 10958 10958 10957 10957 10957 10957 10959 10959 10962 10962 10961 10961 10961 10962 10962 10963 10963 10962 10962 10963 10963 10962 10961 10962 10963 10964 10964 10963 10962 10962 10961 10959 10958 10957 10954 10953 10952
10933 10937 10940 10942 10945 10946 10950 10951 10951 10954 10955 10953 10953 10951 10953 10953 10953 10954 10955 10955 10956 10958 10959 10959 10957 10957 10956 10957 10958 10957 10958 10958 10958 10958 10958 10958 10958 10958 10958 10957 10957 10957 10956 10955 10954 10952 10951 10950 10948
10928 10932 10935 10937 10939 10941 10944 10947 10947 10950 10950 10947 10945 10946 10946 10950 10950 10951 10952 10952 10952 10952 10952 10952 10951 10951 10950 10951 10952 10953 10952 10952 10953 10954 10953 10952 10952 10952 10951 10951 10950 10951 10950 10949 10948 10947 10946 10945 10943
10923 10927 10931 10934 10935 10936 10939 10941 10942 10942 10942 10940 10939 10940 10940 10942 10946 10947 10947 10946 10947 10946 10946 10946 10946 10944 10944 10946 10946 10946 10946 10946 10947 10946 10946 10945 10945 10944 10944 10943 10943 10942 10942 10941 10939 10937 10935 10934 10933
10917 10922 10927 10930 10932 10932 10933 10932 10933 10935 10934 10933 10932 10934 10935 10937 10940 10942 10940 10941 10941 10940 10939 10939 10940 10939 10939 10938 10938 10937 10938 10937 10938 10938 10937 10937 10937 10937 10936 10936 10934 10933 10933 10933 10933 10931 10929 10927 10925
10912 10915 10920 10926 10928 10928 10927 10926 10924 10927 10923 10927 10928 10926 10928 10932 10934 10932 10933 10933 10933 10932 10931 10932 10931 10932 10931 10931 10930 10931 10931 10929 10929 10928 10929 10927 10927 10927 10926 10924 10925 10924 10923 10921 10920 10919 10918 10917 10917
10906 10910 10913 10922 10923 10921 10919 10920 10919 10917 10918 10922 10920 10922 10925 10924 10926 10926 10925 10924 10923 10924 10924 10923 10924 10924 10922 10922 10922 10921 10920 10920 10919 10918 10918 10918 10918 10916 10915 10913 10914 10914 10912 10911 10911 10910 10909 10907 10906
10901 10905 10907 10913 10916 10914 10912 10910 10909 10910 10913 10912 10911 10920 10921 10918 10917 10917 10917 10916 10914 10913 10913 10913 10913 10914 10910 10909 10908 10908 10909 10907 10907 10907 10905 10906 10906 10903 10903 10901 10900 10899 10899 10898 10897 10898 10899 10897 10894
10894 10899 10902 10906 10906 10906 10903 10901 10902 10902 10904 10900 10906 10913 10907 10906 10907 10906 10906 10904 10902 10900 10901 10901 10901 10902 10901 10900 10898 10895 10893 10892 10893 10894 10893 10893 10891 10890 10889 10888 10885 10885 10884 10883 10882 10882 10884 10883 10881
10886 10892 10897 10899 10897 10895 10894 10895 10894 10895 10895 10895 10901 10901 10896 10897 10895 10895 10895 10894 10892 10891 10889 10890 10889 10888 10887 10885 10884 10882 10881 10880 10879 10877 10876 10875 10874 10874 10873 10871 10870 10869 10868 10866 10866 10866 10866 10866 10864
10881 10886 10889 10890 10888 10888 10888 10887 10886 10886 10886 10887 10891 10889 10890 10888 10887 10884 10883 10882 10881 10881 10878 10878 10877 10876 10874 10873 10871 10869 10868 10867 10865 10864 10860 10859 10858 10857 10854 10852 10851 10851 10849 10849 10848 10846 10846 10848 10846
10877 10877 10880 10881 10880 10880 10880 10878 10876 10877 10877 10879 10881 10880 10879 10877 10875 10874 10872 10871 10869 10869 10868 10866 10865 10864 10862 10859 10857 10853 10852 10852 10850 10847 10846 10844 10844 10841 10837 10834 10832 10831 10831 10831 10830 10829 10828 10829 10827
10868 10870 10873 10873 10873 10872 10871 10869 10868 10867 10868 10870 10870 10871 10869 10867 10865 10863 10861 10860 10859 10857 10857 10855 10853 10852 10849 10846 10843 10840 10838 10835 10833 10832 10829 10826 10827 10823 10821 10819 10815 10814 10812 10811 10812 10810 10809 10810 10809
10861 10863 10865 10865 10865 10865 10863 10862 10860 10858 10858 10859 10858 10859 10858 10857 10854 10850 10849 10850 10849 10848 10846 10843 10841 10837 10834 10830 10827 10824 10820 10817 10815 10815 10813 10810 10809 10806 10802 10800 10798 10796 10795 10792 10791 10792 10791 10789 10787
10854 10855 10856 10857 10857 10855 10854 10854 10852 10849 10848 10848 10847 10847 10846 10844 10841 10838 10837 10837 10840 10838 10834 10830 10827 10822 10820 10815 10814 10809 10805 10801 10798 10797 10794 10792 10790 10787 10784 10782 10779 10777 10776 10773 10771 10768 10767 10768 10767
10847 10849 10848 10849 10848 10847 10846 10845 10843 10840 10839 10839 10840 10838 10834 10831 10827 10825 10823 10824 10823 10822 10819 10816 10813 10811 10807 10804 10800 10795 10790 10785 10780 10778 10776 10773 10770 10768 10765 10762 10760 10758 10756 10753 10751 10749 10743 10741 10742
10840 10841 10840 10840 10840 10838 10837 10836 10833 10831 10830 10830 10828 10826 10823 10819 10816 10812 10809 10810 10809 10807 10804 10801 10799 10796 10792 10788 10782 10778 10771 10768 10762 10758 10755 10754 10750 10746 10743 10740 10739 10738 10736 10735 10731 10728 10727 10722 10718
10831 10832 10833 10831 10831 10830 10828 10827 10824 10822 10820 10820 10815 10812 10810 10804 10801 10796 10794 10796 10794 10792 10789 10786 10782 10777 10774 10769 10763 10757 10754 10749 10744 10739 10735 10732 10729 10725 10722 10718 10717 10713 10711 10710 10708 10705 10702 10698 10699
10822 10822 10824 10823 10823 10822 10818 10816 10813 10810 10808 10805 10803 10800 10795 10789 10783 10779 10781 10782 10778 10777 10771 10766 10761 10756 10750 10746 10740 10736 10732 10728 10725 10719 10714 10709 10705 10701 10698 10694 10691 10689 10687 10685 10684 10682 10679 10675 10676
10811 10812 10812 10812 10811 10812 10809 10806 10802 10799 10797 10794 10792 10789 10781 10773 10767 10766 10766 10767 10762 10757 10750 10746 10739 10732 10725 10721 10720 10717 10711 10706 10703 10699 10696 10690 10685 10680 10677 10674 10671 10669 10666 10664 10663 10661 10659 10655 10654
10802 10801 10802 10801 10800 10799 10798 10796 10791 10788 10785 10783 10783 10777 10766 10759 10756 10754 10753 10751 10746 10740 10732 10725 10718 10712 10708 10704 10698 10693 10690 10688 10683 10680 10678 10675 10669 10665 10661 10658 10656 10653 10649 10646 10645 10643 10640 10638 10634
10791 10791 10791 10791 10791 10789 10786 10785 10778 10774 10771 10770 10771 10764 10757 10749 10747 10743 10743 10739 10733 10725 10716 10707 10703 10698 10693 10686 10679 10675 10673 10670 10667 10665 10663 10660 10658 10653 10649 10644 10641 10639 10636 10633 10631 10628 10626 10624 10620
10782 10781 10781 10782 10782 10780 10776 10775 10767 10765 10763 10760 10760 10755 10749 10741 10737 10734 10733 10728 10721 10712 10702 10696 10689 10683 10675 10667 10660 10655 10652 10651 10651 10651 10649 10647 10646 10643 10638 10632 10628 10625 10623 10621 10618 10616 10613 10611 10608
10776 10775 10775 10774 10772 10771 10769 10767 10762 10760 10756 10751 10747 10744 10741 10735 10729 10725 10720 10713 10705 10697 10689 10683 10675 10665 10656 10650 10644 10639 10635 10631 10631 10633 10633 10633 10632 10631 10627 10622 10618 10615 10612 10610 10607 10604 10601 10599 10595
10771 10770 10769 10767 10766 10765 10763 10759 10757 10755 10751 10746 10740 10735 10731 10725 10719 10712 10706 10699 10691 10682 10675 10666 10657 10646 10638 10630 10624 10620 10618 10616 10615 10617 10618 10619 10619 10617 10614 10611 10608 10605 10601 10599 10596 10593 10589 10585 10580
10764 10763 10762 10761 10759 10757 10755 10753 10751 10748 10744 10739 10734 10728 10722 10715 10707 10699 10693 10686 10678 10669 10659 10647 10636 10627 10619 10612 10607 10604 10602 10601 10602 10604 10605 10606 10605 10604 10602 10600 10597 10594 10591 10589 10585 10581 10577 10573 10567
10754 10755 10754 10754 10751 10749 10745 10743 10742 10739 10736 10732 10726 10720 10713 10705 10697 10689 10680 10671 10663 10653 10643 10630 10621 10613 10606 10601 10596 10593 10591 10590 10590 10591 10592 10593 10594 10593 10591 10589 10587 10584 10581 10578 10574 10570 10567 10563 10558
10744 10745 10746 10744 10743 10741 10737 10733 10732 10729 10725 10720 10714 10708 10701 10693 10684 10675 10666 10658 10649 10640 10628 10618 10609 10602 10597 10591 10586 10582 10580 10579 10579 10580 10581 10583 10584 10583 10582 10581 10579 10576 10573 10570 10567 10564 10560 10555 10550
10734 10736 10735 10735 10733 10731 10731 10726 10725 10721 10716 10711 10706 10698 10690 10681 10673 10664 10657 10648 10639 10627 10616 10607 10598 10591 10585 10579 10574 10570 10567 10568 10569 10570 10572 10574 10575 10575 10575 10574 10572 10569 10567 10565 10562 10557 10553 10548 10542